Location: ??????
(31.2056°N, 45.3906°E)
Time: 09:01:12
(UTC+00:00)

Daily predictions for brighter satellites

Satellite Brightness Start Highest point End
(mag) Time Altitude Azimuth Time Altitude Azimuth Time Altitude Azimuth
STARLINK-1130 (DARKSAT) 4.0 15:39:54 10° NW 15:43:59 65° SW 15:48:05 10° SSE
Cosmos 407 Rocket 3.9 15:39:57 10° S 15:44:43 39° E 15:49:28 10° NNE
Hubble Space Telescope 1.4 15:41:41 10° WSW 15:45:35 42° SSE 15:49:29 10° E
Cosmos 1943 3.9 15:42:35 10° SSW 15:48:08 60° WNW 15:53:45 10° NNE
STARLINK-1084 4.2 15:44:54 10° NW 15:48:58 57° SW 15:53:01 10° SSE
FALCON 9 R/B 3.9 15:43:01 10° W 15:49:12 69° S 16:22:44 14° ESE
Cosmos 1992 Rocket 4.0 15:47:23 10° N 15:52:33 64° ENE 15:57:40 10° SSE
Cosmos 1726 2.1 15:49:33 10° S 15:53:14 68° E 15:56:57 10° NNE
STARLINK-1098 4.4 15:49:55 10° NW 15:53:55 50° SW 15:57:55 10° SSE
Cosmos 2228 3.5 15:50:46 10° SSE 15:54:44 38° E 15:58:45 10° NNE
Cosmos 1340 Rocket 4.1 15:52:16 10° SE 15:55:18 21° E 15:58:19 10° NE
Cosmos 1908 4.0 15:52:24 10° SSE 15:55:47 30° E 15:59:13 10° NNE
Cosmos 1825 Rocket 4.3 15:55:20 10° NNE 15:59:12 30° E 16:03:01 10° SE
Cosmos 2263 4.4 15:53:53 10° N 15:59:20 51° ENE 16:04:45 10° SE
CZ-3 Stage 3 3.6 15:54:39 10° WSW 15:59:49 81° SSE 16:28:38 10° E
SEDSat Delta rocket 3.6 15:55:29 10° W 16:01:02 65° SSW 16:05:27 12° ESE
SL-24 R/B - RUBIN 2 4.3 15:57:14 10° SSW 16:02:27 81° WNW 16:08:27 10° NNE
ARGOS 4.1 15:59:04 10° SE 16:03:35 28° ENE 16:08:07 10° NNE
FREGAT/IRIS 4.1 16:04:22 14° E 16:05:16 16° ENE 16:07:05 10° NNE
CZ-2C R/B 4.0 16:02:43 10° ENE 16:05:52 16° E 16:09:00 10° SE
IRIDIUM 106 4.5 16:00:48 10° N 16:05:54 53° E 16:10:58 10° SSE
ISS -2.6 16:04:20 10° WNW 16:07:31 40° SW 16:10:41 10° SSE
Cosmos 1437 2.9 16:05:00 10° N 16:07:53 42° E 16:10:45 10° SSE
Cosmos 1606 Rocket 3.5 16:09:23 10° S 16:13:46 76° E 16:18:14 10° N
Cosmos 1758 Rocket 3.5 16:09:43 10° N 16:13:57 57° E 16:18:11 10° SSE
Cosmos 1953 Rocket 4.1 16:18:03 10° NNE 16:22:15 38° E 16:25:27 16° SE
CZ-4 R/B 4.0 16:19:21 10° SSW 16:22:17 21° W 16:25:13 10° NW
Cosmos 1953 4.4 16:19:36 10° SW 16:23:06 30° W 16:26:38 10° NNW
IRS-1A Rocket 4.4 16:18:18 10° SSE 16:23:51 60° ENE 16:29:33 10° N
Cosmos 2074 Rocket 4.0 16:19:10 10° N 16:25:28 73° E 16:31:44 10° S
USA 186 2.1 16:26:32 22° SE 16:28:21 46° ENE 16:31:28 10° N
SJ-11-01 4.3 16:26:16 10° SSE 16:30:57 87° WSW 16:35:42 10° NNW
USA 234 3.8 16:25:20 10° ENE 16:31:12 35° SE 16:37:04 10° S
ATLAS 2AS CENTAUR R/B 3.2 16:27:09 10° NNW 16:34:11 45° NE 16:38:03 24° ESE
ATLAS 5 CENTAUR R/B 3.3 16:33:20 10° WSW 16:36:57 31° NW 16:40:51 10° N
Centaur AC-42 3.1 16:33:36 10° WSW 16:37:29 23° S 16:38:50 19° SSE
H-2A R/B 2.0 16:33:24 10° SSE 16:38:38 78° ENE 16:43:45 10° N
Cosmos 1610 Rocket 4.4 16:36:30 10° N 16:42:35 63° E 16:48:01 13° SSE
COSMOS 2455 3.9 16:41:08 10° N 16:46:10 27° ENE 16:47:36 24° E
Cosmos 1140 Rocket 3.9 16:41:57 10° SSW 16:47:07 66° WNW 16:52:16 10° N
Ariane Rocket 3.2 16:43:17 10° S 16:48:19 72° WSW 16:53:23 10° NNW
GPS 2-04 Rocket1 2.6 16:48:21 10° WSW 16:52:22 80° SSE 16:53:23 49° E
SL-8 R/B 4.0 16:47:52 10° WNW 16:52:33 59° SW 16:54:33 32° SSE
CZ-2C R/B 2.9 16:48:37 12° S 16:53:08 81° WSW 16:57:56 10° NNW
Resurs 1-3 4.0 17:04:08 44° ENE 17:04:08 44° ENE 17:07:58 10° N
APEX 3.8 16:58:39 10° NNW 17:04:32 78° ENE 17:05:50 50° SE
SJ-6B 3.0 17:03:35 37° S 17:05:08 73° WSW 17:09:16 10° NNW
Cosmos 1300 2.7 17:08:22 72° NNE 17:08:22 72° NNE 17:11:49 10° N
Cosmos 2369 Rocket 4.5 17:09:44 10° NW 17:13:50 21° W 17:17:55 10° SSW
SL-08 RB Rocket 4.0 17:18:12 41° SSW 17:19:37 62° W 17:24:10 10° NNW
Hubble Space Telescope 1.8 17:22:32 10° W 17:25:18 38° WSW 17:25:18 38° WSW
Cosmos 2341 Rocket 3.9 17:20:39 10° N 17:27:03 77° E 17:28:26 57° SSE
COSMOS 2406 4.5 17:31:08 27° NE 17:31:08 27° NE 17:33:45 10° NNE
Cosmos 1461 3.4 17:27:34 10° NNW 17:31:36 67° NW 17:31:36 67° NW
MetOp-A 4.2 17:32:10 57° SSW 17:33:09 72° WSW 17:38:31 10° NNW
Cosmos 921 Rocket 3.7 17:29:42 10° NNW 17:32:53 50° NNW 17:32:53 50° NNW
Centaur AC-119 4.5 17:27:55 10° WSW 17:33:09 25° SSW 17:33:09 25° SSW
Cosmos 2218 Rocket 4.3 17:32:15 10° N 17:37:28 51° NE 17:37:28 51° NE
Resurs 01 Rocket 2.7 17:40:10 37° N 17:40:10 37° N 17:42:54 10° N
SPOT 3 Rocket 4.2 17:42:05 46° SW 17:42:59 52° W 17:48:04 10° NNW
Cosmos 2181 Rocket 4.2 17:43:20 33° SSW 17:46:13 69° W 17:52:24 10° N
CZ-2C R/B 3.5 17:41:22 10° N 17:46:17 45° WNW 17:50:32 14° SW
SL-8 Rocket 3.9 17:44:27 10° N 17:50:33 83° NNE 17:50:33 83° NNE
NOSS 3-4 (A) 4.3 17:45:50 10° NW 17:53:03 59° WSW 17:55:03 47° SSW
NOSS 3-4 (C) 4.3 17:45:56 10° NW 17:53:10 60° WSW 17:55:08 47° SSW
Cosmos 2366 rocket 4.3 17:58:41 10° N 18:03:28 57° N 18:03:28 57° N
USA 234 3.9 18:07:56 10° NNE 18:14:13 51° NW 18:20:29 10° WSW
ATLAS 2AS CENTAUR R/B 4.1 18:18:47 10° NW 18:24:43 29° WSW 18:25:32 28° WSW
COSMOS 2455 4.2 18:26:35 10° NW 18:30:47 34° W 18:30:47 34° W
CZ-4C R/B 4.4 19:12:52 10° NNW 19:16:38 29° N 19:16:38 29° N
ATLAS 5 CENTAUR R/B 4.4 19:14:51 10° WSW 19:55:48 24° ESE 20:24:45 10° ESE
CENTAUR R/B 3.6 23:25:36 37° NNE 23:25:36 37° NNE 23:29:29 10° NNE
SL-16 R/B 4.0 23:25:46 10° N 23:30:33 28° ENE 23:35:20 10° ESE
Cosmos 2263 Rocket 3.7 23:52:00 27° ESE 23:52:56 28° ESE 23:57:41 10° NE
